Location: Keeble Observatory
(37.7625°N, 77.4755°W)
Time: 14:27:44
(UTC-05:00)

Daily predictions for brighter satellites

Satellite Brightness Start Highest point End
(mag) Time Altitude Azimuth Time Altitude Azimuth Time Altitude Azimuth
Cosmos 1818 3.7 18:18:40 10° SSW 18:24:07 89° WNW 18:29:37 10° NNE
Cosmos 407 Rocket 3.6 18:20:19 10° SSW 18:25:33 86° WNW 18:30:54 10° NNE
Cosmos 2219 4.4 18:24:02 10° SSE 18:28:18 22° E 18:32:34 10° NE
Cosmos 2360 Rocket 2.8 18:23:17 10° N 18:28:28 36° ENE 18:33:38 10° SE
ASTRO F (AKARI) 4.4 18:25:39 10° NNE 18:29:12 72° ESE 18:32:32 10° S
Cosmos 676 Rocket 4.0 18:24:58 10° S 18:30:07 71° ESE 18:35:19 10° NNE
DNEPR-1 R/B 3.5 18:28:13 10° NNW 18:32:26 87° WSW 18:36:46 10° SSE
Meteor 1-11 Rocket 4.2 18:32:22 10° SSE 18:37:45 42° E 18:43:16 10° NNE
Nadezhda 1 Rocket 4.2 18:33:18 10° N 18:39:22 74° W 18:45:24 10° S
Cosmos 1461 3.3 18:41:09 10° NW 18:45:10 66° WSW 18:49:16 10° SSE
Cosmos 1140 Rocket 3.5 18:40:12 10° S 18:45:12 58° ESE 18:50:17 10° NNE
DELTA 2 R/B (1) 3.6 18:39:57 10° WNW 18:45:36 88° SSW 18:50:43 13° ESE
Cosmos 1602 3.8 18:44:34 10° S 18:48:21 57° E 18:52:11 10° NNE
Resurs 01 Rocket 2.4 18:44:51 10° SE 18:48:40 29° ENE 18:52:29 10° N
Cosmos 1300 Rocket 3.6 18:45:33 10° S 18:49:51 56° E 18:54:12 10° NNE
Cosmos 2292 Rocket 4.4 18:47:48 10° S 18:52:47 85° W 18:59:35 10° N
Cosmos 614 Rocket 4.1 18:48:12 10° S 18:53:06 50° ESE 18:58:00 10° NNE
Cosmos 1833 4.2 18:49:25 10° SSW 18:55:08 88° WNW 19:00:50 10° NNE
Abrixas rocket 3.2 18:52:21 10° SSW 18:55:21 31° SE 18:56:52 21° E
COSMO-SKYMED 1 4.4 18:52:25 10° N 18:56:20 34° WNW 19:00:15 10° SW
ALOS 2.4 18:52:04 10° SSE 18:56:34 49° ENE 19:01:04 10° N
Cosmos 2181 Rocket 4.0 18:53:10 10° N 18:59:24 68° E 19:05:43 10° SSE
Spot 2 Rocket 3.9 18:56:16 10° SE 19:00:58 41° ENE 19:05:43 10° N
Cosmos 2333 Rocket 3.8 18:59:58 10° NNE 19:03:23 16° NE 19:04:11 15° ENE
FREGAT/IRIS 2.8 19:01:12 10° S 19:04:16 77° WSW 19:07:22 10° NNW
Helios 1A 4.1 19:04:17 22° E 19:04:46 22° ENE 19:08:00 10° NNE
SL-16 R/B 3.6 18:59:52 10° NW 19:05:11 42° WSW 19:10:28 10° S
NOSS 8 (E) 4.4 19:02:11 10° SSW 19:05:38 87° WNW 19:09:17 10° NNE
Resurs 1-3 4.1 19:02:27 10° SE 19:06:30 38° ENE 19:10:33 10° N
Cosmos 1340 2.8 19:03:56 10° NNW 19:07:44 77° W 19:11:30 10° S
Cosmos 1709 Rocket 4.3 19:05:59 10° SSW 19:12:11 69° W 19:18:20 10° N
Cosmos 2074 Rocket 4.1 19:06:20 10° SSE 19:12:17 49° E 19:18:17 10° NNE
Cosmos 1850 Rocket 4.0 19:07:06 10° S 19:12:20 65° ESE 19:17:37 10° NNE
Cosmos 2184 Rocket 4.1 19:09:10 10° SSE 19:15:14 50° E 19:21:15 10° NNE
Envisat 4.5 19:18:30 18° NE 19:18:30 18° NE 19:21:05 10° NNE
FengYun 1-2 T 4.1 19:13:07 10° SSE 19:18:36 79° ENE 19:24:06 10° N
Helios 1B rocket 3.0 19:18:13 29° ENE 19:19:12 33° E 19:22:57 10° SSE
NOSS 8 (H) 4.3 19:16:20 10° SSW 19:19:44 86° NW 19:21:51 22° NNE
Intercosmos 24 4.4 19:16:09 10° SSE 19:20:04 50° E 19:25:31 10° NNE
HJ-1C 3.4 19:18:02 10° S 19:21:24 82° W 19:24:47 10° NNW
Cosmos 2322 Rocket 4.2 19:16:42 10° NW 19:21:28 29° WSW 19:26:13 10° SSW
OTV 4 3.1 19:21:28 10° S 19:21:31 10° S 19:21:31 10° S
SJ-6B 3.8 19:18:50 10° S 19:22:45 50° W 19:26:36 10° NNW
Okean 1 Rocket 3.2 19:20:10 10° S 19:24:39 77° W 19:29:09 10° N
Tiangong 2 2.8 19:22:39 10° W 19:25:19 27° SSW 19:26:32 20° S
Meteor 1-5 Rocket 4.4 19:19:35 10° S 19:25:24 57° E 19:31:12 10° NNE
FENGYUN 3A 3.7 19:21:01 10° SSE 19:26:26 87° WSW 19:31:53 10° NNW
Genesis I 3.4 19:23:50 10° NNW 19:27:40 49° NE 19:28:05 46° ENE
Meteor 1-19 Rocket 4.5 19:24:00 10° NNW 19:29:41 74° W 19:35:25 10° S
SAR-Lupe-4 3.9 19:30:26 45° NE 19:30:26 45° NE 19:33:26 10° N
Hubble Space Telescope 2.9 19:29:22 10° SSW 19:31:23 14° SSE 19:31:23 14° SSE
Gbstr 26 Del rocket 3.6 19:31:44 10° WSW 19:35:21 42° NW 19:36:53 27° NNE
Cosmos 2322 4.0 19:32:21 10° NNW 19:38:02 69° WSW 19:43:41 10° S
Cosmos 1238 Rocket 4.3 19:36:06 10° NNW 19:38:41 27° W 19:41:17 10° SSW
Atlas Centaur 2 4.5 19:42:40 10° SSE 19:43:34 10° SSE 19:43:34 10° SSE
CZ-2D R/B 3.0 19:43:32 67° SSE 19:43:59 84° ENE 19:47:49 10° N
Cosmos 2154 Rocket 4.2 19:38:16 10° SSE 19:44:13 44° E 19:50:11 10° NNE
GEOS 3 Rocket 4.2 19:40:16 10° NNE 19:45:25 58° NW 19:50:35 10° SW
Cosmos 2285 Rocket 4.0 19:39:11 10° N 19:45:31 57° ENE 19:47:50 38° SE
GPS 2-04 Rocket1 3.2 19:42:15 10° WSW 19:46:26 52° SSE 19:46:29 52° SSE
Cosmos 1025 Rocket 2.9 19:42:05 10° N 19:46:29 87° E 19:48:41 29° S
H-2A R/B 3.2 19:46:26 16° S 19:49:17 58° W 19:52:59 10° NNW
Meteor 2-13 Rocket 4.3 19:44:09 10° S 19:50:06 64° E 19:56:07 10° NNE
Cosmos 1536 4.0 19:46:34 10° SSW 19:50:22 42° W 19:54:10 10° N
Okean 1-7 Rocket 4.2 19:48:13 10° NNW 19:52:41 58° W 19:57:03 10° S
Meteor 1-23 Rocket 4.3 19:47:38 10° N 19:53:27 80° W 19:59:10 10° S
COSMOS 2428 2.6 19:47:44 10° NNW 19:53:27 83° ENE 19:55:38 40° SSE
Cosmos 2237 4.3 19:47:57 10° NNW 19:53:42 77° WSW 19:57:28 22° SSE
Cosmos 2333 4.1 19:49:05 10° NNW 19:54:50 74° ENE 19:56:21 50° SE
Meteor 2-4 Rocket 4.1 19:50:18 10° NNW 19:55:44 60° W 20:01:01 10° S
Cosmos 2237 Rocket 3.5 19:52:32 10° N 19:55:53 26° NNE 19:55:53 26° NNE
NOSS 0 Rocket 4.2 20:03:07 10° NNW 20:08:24 49° NE 20:08:24 49° NE
Cosmos 2219 4.1 20:06:31 10° SW 20:12:03 48° WNW 20:17:37 10° N
Cosmos 2360 Rocket 4.0 20:07:29 10° NW 20:12:18 29° WSW 20:17:06 10° SSW
Cosmos 2219 Rocket 2.3 20:08:53 10° NNW 20:13:36 58° NNE 20:13:36 58° NNE
Cosmos 2227 Rocket 4.3 20:12:41 10° S 20:13:25 14° S 20:13:25 14° S
Resurs 01 Rocket 3.9 20:21:40 10° SSW 20:25:06 22° W 20:28:34 10° NW
SL-16 R/B 4.4 20:26:20 10° N 20:27:20 14° N 20:27:20 14° N
ATLAS CENTAUR R/B 4.4 20:29:47 10° WSW 20:30:46 15° WSW 20:30:46 15° WSW
BREEZE-M DEB (TANK) 4.2 20:30:24 10° NW 20:34:38 88° NE 20:35:01 81° ESE
Cosmos 2333 Rocket 3.2 20:42:32 10° NNW 20:46:14 41° NNW 20:46:14 41° NNW
USA 229 DEB 4.1 20:47:22 10° NW 20:54:23 59° WSW 20:54:32 59° WSW
USA 229 4.1 20:47:28 10° NW 20:54:29 60° WSW 20:54:36 60° WSW
